Retour au catalogue

GEESAT 1-06

ActifCommunicationsLEO
NORAD 52790·PAYLOAD·🇨🇳 China

Lancé Jun 2, 2022 depuis Xichang Satellite Launch Center

Loading…

Prochains Passages (prochaines 24 heures)

TLE

FraisSource: Space-Track

Époque: Sep 14, 2026, 13:58 UTC

1 52790U 22058F   26257.58259276  .00001287  00000-0  18951-3 0  9991
2 52790  50.0048 150.0555 0032932 128.0759 232.3157 14.81576345233188

Suivez GEESAT 1-06 en temps réel avec AllMySat

Download on the App Store